Iowa City, IA

10:46 PM CDT on April 07, 2020 (GMT -0500)
Iowa City Municipal

Weather History for KIOW - September, 2019

Change the Weather History Date:

Thursday, September 5, 2019

  Actual Average Record
Temperature  
Mean Temperature 66 °F -  
Max Temperature 80 °F - 95 °F (1960)
Min Temperature 52 °F - 40 °F (1962)
Cooling Degree Days 1    
Month to date cooling degree days 26  
Year to date cooling degree days 981  
Growing Degree Days 16 (Base 50)    
Moisture  
Dew Point 58 °F    
Average Humidity 72    
Maximum Humidity 89    
Minimum Humidity 54    
Precipitation  
Precipitation 0.00 in - 2.76 in (2018)
Month to date precipitation 0.04  
Year to date precipitation 29.52  
Sea Level Pressure  
Sea Level Pressure 30.09 in    
Wind  
Wind Speed 6 mph (SSE)    
Max Wind Speed 17 mph    
Max Gust Speed 23 mph    
Visibility 10 miles    
Events      
T = Trace of Precipitation, MM = Missing Value Source: NWS Daily Summary

Daily Weather History Graph

Daily Weather History Graph

Search for Another Location

Airport or City:

Astronomy

Sep. 05, 2019 Rise Set
Actual Time 6:36 AM CDT 7:33 PM CDT
Civil Twilight 6:07 AM CDT 8:01 PM CDT
Nautical Twilight 5:34 AM CDT 8:34 PM CDT
Astronomical Twilight 4:58 AM CDT 9:09 PM CDT
Moon 1:48 PM CDT (9/5) 11:43 PM CDT (9/5)
Length of Visible Light 13h 53m
Length of Day
12h 56m
Waxing Crescent, 45% of the Moon is Illuminated
Sep 5
Waxing Crescent
Sep 5
First Quarter
Sep 13
Full
Sep 21
Last Quarter
Sep 28
New

Hourly Weather History & Observations

Time (CDT) Temp. Heat Index Dew Point Humidity Pressure Visibility Wind Dir Wind Speed Gust Speed Precip Events Conditions
12:52 AM 57.9 °F - 52.0 °F 81% 30.17 in 10.0 mi Calm Calm - N/A   Clear
1:52 AM 57.9 °F - 53.1 °F 84% 30.17 in 10.0 mi Calm Calm - N/A   Clear
2:52 AM 55.9 °F - 52.0 °F 87% 30.16 in 10.0 mi Calm Calm - N/A   Clear
3:52 AM 54.0 °F - 50.0 °F 86% 30.16 in 10.0 mi Calm Calm - N/A   Clear
4:52 AM 55.0 °F - 51.1 °F 86% 30.16 in 10.0 mi Calm Calm - N/A   Clear
5:52 AM 53.1 °F - 50.0 °F 89% 30.17 in 10.0 mi Calm Calm - N/A   Clear
6:52 AM 55.0 °F - 52.0 °F 89% 30.18 in 10.0 mi Calm Calm - N/A   Clear
7:52 AM 57.9 °F - 53.1 °F 84% 30.18 in 10.0 mi ESE 4.6 mph - N/A   Clear
8:52 AM 62.1 °F - 55.9 °F 80% 30.18 in 10.0 mi SE 5.8 mph - N/A   Scattered Clouds
9:52 AM 68.0 °F - 59.0 °F 73% 30.17 in 10.0 mi SSE 8.1 mph - N/A   Partly Cloudy
10:52 AM 71.1 °F - 59.0 °F 66% 30.15 in 10.0 mi South 8.1 mph - N/A   Mostly Cloudy
11:52 AM 73.0 °F - 57.9 °F 59% 30.14 in 10.0 mi SSE 12.7 mph - N/A   Scattered Clouds
12:52 PM 75.0 °F - 60.1 °F 60% 30.12 in 10.0 mi ESE 11.5 mph - N/A   Partly Cloudy
1:52 PM 77.0 °F - 60.1 °F 56% 30.09 in 10.0 mi South 11.5 mph - N/A   Clear
2:52 PM 80.1 °F 81.2 °F 62.1 °F 54% 30.06 in 10.0 mi South 11.5 mph - N/A   Mostly Cloudy
3:52 PM 79.0 °F - 62.1 °F 56% 30.03 in 10.0 mi SSE 13.8 mph - N/A   Partly Cloudy
4:52 PM 80.1 °F 81.2 °F 62.1 °F 54% 30.01 in 10.0 mi SSE 10.4 mph - N/A   Clear
5:52 PM 79.0 °F - 63.0 °F 58% 29.99 in 10.0 mi South 13.8 mph - N/A   Clear
6:52 PM 77.0 °F - 63.0 °F 62% 29.97 in 10.0 mi South 8.1 mph - N/A   Clear
7:52 PM 73.0 °F - 63.0 °F 71% 29.98 in 10.0 mi SSE 4.6 mph - N/A   Clear
8:52 PM 71.1 °F - 63.0 °F 75% 29.99 in 10.0 mi SE 4.6 mph - N/A   Clear
9:52 PM 69.1 °F - 64.0 °F 84% 29.97 in 10.0 mi SE 3.5 mph - N/A   Partly Cloudy
10:52 PM 68.0 °F - 63.0 °F 84% 29.96 in 10.0 mi SE 3.5 mph - N/A   Partly Cloudy
11:52 PM 68.0 °F - 64.0 °F 87% 29.95 in 10.0 mi SE 3.5 mph - N/A   Mostly Cloudy